Location: Waco, TX
(31.5480°N, 97.1670°W)
Time: 06:54:20
(UTC-05:00)

ISS - Pass Details

Date: 26 May 2018
Orbit: 402 x 407 km, 51.6° (Epoch: 26 May)

Event Time Altitude Azimuth Distance (km) Brightness Sun altitude
Rises 20:12:26 0° 253° (WSW) 2,310 0.9 1.7°
Reaches altitude 10° 20:14:50 10° 270° (W) 1,453 0.4 1.2°
Maximum altitude 20:17:25 22° 322° (NW) 950 -0.9 0.7°
Drops below altitude 10° 20:20:01 10° 16° (NNE) 1,456 -0.9 0.2°
Sets 20:22:25 0° 32° (NNE) 2,316 -0.1 -0.3°
